| time (UTC) | temp F | wind direction | speed knots | gust knots | rain 1hr in | rain 24hr in | rain mn in | humidity % | barometer mb |
| 20260505035751 | 61 | 321 | 1.7 | 7.8 | 0.00 | 0.00 | 0.00 | 53 | 1009.4 |
| 20260505035512 | 61 | 300 | 1.7 | 7.8 | 0.00 | 0.00 | 0.00 | 53 | 1009.3 |
| 20260505034751 | 61 | 283 | 2.6 | 7.8 | 0.00 | 0.00 | 0.00 | 53 | 1009.2 |
| 20260505034519 | 61 | 261 | 2.6 | 8.7 | 0.00 | 0.00 | 0.00 | 52 | 1009.3 |
| 20260505033751 | 61 | 237 | 1.7 | 8.7 | 0.00 | 0.00 | 0.00 | 53 | 1009.3 |
| 20260505033250 | 61 | 262 | 2.6 | 7.8 | 0.00 | 0.00 | 0.00 | 52 | 1009.2 |
| 20260505032750 | 61 | 275 | 1.7 | 6.1 | 0.00 | 0.00 | 0.00 | 52 | 1009.2 |
| 20260505032517 | 62 | 248 | 1.7 | 6.1 | 0.00 | 0.00 | 0.00 | 52 | 1009.1 |
| 20260505031750 | 62 | 261 | 1.7 | 6.1 | 0.00 | 0.00 | 0.00 | 51 | 1009.1 |
| 20260505031516 | 62 | 262 | 1.7 | 6.1 | 0.00 | 0.00 | 0.00 | 51 | 1009.1 |
| 20260505030750 | 62 | 255 | 2.6 | 7.8 | 0.00 | 0.00 | 0.00 | 51 | 1009.1 |
| 20260505030250 | 62 | 294 | 2.6 | 7.8 | 0.00 | 0.00 | 0.00 | 51 | 1009.0 |
| 20260505025750 | 62 | 241 | 2.6 | 7.8 | 0.00 | 0.00 | 0.00 | 51 | 1009.0 |
| 20260505025250 | 62 | 274 | 1.7 | 9.6 | 0.00 | 0.00 | 0.00 | 50 | 1009.1 |
| 20260505024750 | 62 | 104 | 2.6 | 9.6 | 0.00 | 0.00 | 0.00 | 50 | 1009.1 |
| 20260505024250 | 63 | 257 | 3.5 | 9.6 | 0.00 | 0.00 | 0.00 | 50 | 1009.0 |
| 20260505024009 | 63 | 260 | 3.5 | 9.6 | 0.00 | 0.00 | 0.00 | 50 | 1009.2 |
| 20260505023250 | 63 | 266 | 2.6 | 9.6 | 0.00 | 0.00 | 0.00 | 50 | 1009.1 |
| 20260505022750 | 63 | 97 | 2.6 | 7.8 | 0.00 | 0.00 | 0.00 | 49 | 1009.1 |
| 20260505022251 | 63 | 293 | 2.6 | 7.8 | 0.00 | 0.00 | 0.00 | 49 | 1009.1 |
| 20260505021751 | 63 | 259 | 2.6 | 7.0 | 0.00 | 0.00 | 0.00 | 49 | 1009.1 |
| 20260505021251 | 63 | 298 | 2.6 | 7.0 | 0.00 | 0.00 | 0.00 | 49 | 1009.0 |
| 20260505020751 | 64 | 278 | 2.6 | 7.0 | 0.00 | 0.00 | 0.00 | 49 | 1009.0 |
| 20260505020251 | 64 | 281 | 2.6 | 13.9 | 0.00 | 0.00 | 0.00 | 48 | 1008.9 |
| 20260505015752 | 64 | 264 | 3.5 | 13.9 | 0.00 | 0.00 | 0.00 | 48 | 1008.9 |
| 20260505015517 | 64 | 212 | 4.3 | 13.9 | 0.00 | 0.00 | 0.00 | 47 | 1008.8 |
| 20260505014751 | 64 | 296 | 3.5 | 13.9 | 0.00 | 0.00 | 0.00 | 47 | 1008.7 |
| 20260505014251 | 64 | 249 | 2.6 | 7.0 | 0.00 | 0.00 | 0.00 | 47 | 1008.6 |
| 20260505013747 | 64 | 276 | 2.6 | 8.7 | 0.00 | 0.00 | 0.00 | 47 | 1008.6 |
| 20260505013248 | 65 | 295 | 3.5 | 8.7 | 0.00 | 0.00 | 0.00 | 46 | 1008.4 |
| 20260505012749 | 65 | 269 | 3.5 | 8.7 | 0.00 | 0.00 | 0.00 | 46 | 1008.3 |
| 20260505012249 | 65 | 268 | 2.6 | 10.4 | 0.00 | 0.00 | 0.00 | 45 | 1008.3 |
| 20260505011750 | 65 | 279 | 2.6 | 10.4 | 0.00 | 0.00 | 0.00 | 45 | 1008.2 |
| 20260505011249 | 65 | 281 | 1.7 | 7.0 | 0.00 | 0.00 | 0.00 | 44 | 1008.1 |
| 20260505010749 | 64 | 269 | 0.9 | 6.1 | 0.00 | 0.00 | 0.00 | 44 | 1008.0 |
| 20260505010250 | 64 | 146 | 0.0 | 1.7 | 0.00 | 0.00 | 0.00 | 45 | 1007.9 |
| 20260505010013 | 64 | 266 | 0.0 | 0.9 | 0.00 | 0.00 | 0.00 | 45 | 1007.8 |
| 20260505005249 | 65 | 266 | 0.0 | 0.0 | 0.00 | 0.00 | 0.00 | 42 | 1007.5 |
| 20260505004746 | 65 | 266 | 0.0 | 0.0 | 0.00 | 0.00 | 0.00 | 41 | 1007.5 |
| 20260505004504 | 66 | 266 | 0.0 | 0.9 | 0.00 | 0.00 | 0.00 | 40 | 1007.4 |
| 20260505003745 | 66 | 266 | 0.0 | 0.9 | 0.00 | 0.00 | 0.00 | 39 | 1007.3 |
| 20260505003246 | 66 | 266 | 0.0 | 0.9 | 0.00 | 0.00 | 0.00 | 39 | 1007.1 |
| 20260505002746 | 67 | 237 | 0.0 | 0.9 | 0.00 | 0.00 | 0.00 | 38 | 1007.1 |
| 20260505002247 | 67 | 257 | 0.0 | 0.9 | 0.00 | 0.00 | 0.00 | 38 | 1007.0 |
| 20260505001747 | 67 | 257 | 0.0 | 2.6 | 0.00 | 0.00 | 0.00 | 38 | 1006.8 |
| 20260505001247 | 68 | 257 | 0.0 | 2.6 | 0.00 | 0.00 | 0.00 | 37 | 1006.7 |
| 20260505000747 | 68 | 256 | 0.0 | 2.6 | 0.00 | 0.00 | 0.00 | 37 | 1006.7 |
| 20260505000248 | 69 | 274 | 0.0 | 2.6 | 0.00 | 0.00 | 0.00 | 36 | 1006.6 |
| 20260504235747 | 69 | 189 | 0.9 | 2.6 | 0.00 | 0.00 | 0.00 | 36 | 1006.6 |
| 20260504235247 | 69 | 275 | 0.9 | 3.5 | 0.00 | 0.00 | 0.00 | 36 | 1006.5 |
| 20260504235219 | 69 | 255 | 0.9 | 3.5 | 0.00 | 0.00 | 0.00 | 35 | 1006.5 |
| 20260504234244 | 70 | 243 | 0.9 | 3.5 | 0.00 | 0.00 | 0.00 | 35 | 1006.4 |
| 20260504233743 | 70 | 300 | 0.9 | 3.5 | 0.00 | 0.00 | 0.00 | 35 | 1006.3 |
| 20260504233242 | 70 | 243 | 0.9 | 3.5 | 0.00 | 0.00 | 0.00 | 34 | 1006.3 |
| 20260504232742 | 70 | 291 | 0.9 | 3.5 | 0.00 | 0.00 | 0.00 | 34 | 1006.2 |
| 20260504232514 | 71 | 276 | 0.9 | 6.1 | 0.00 | 0.00 | 0.00 | 34 | 1006.1 |
| 20260504231741 | 71 | 298 | 1.7 | 6.1 | 0.00 | 0.00 | 0.00 | 33 | 1006.1 |
| 20260504231241 | 71 | 260 | 1.7 | 6.1 | 0.00 | 0.00 | 0.00 | 34 | 1006.0 |
| 20260504230741 | 71 | 295 | 1.7 | 6.1 | 0.00 | 0.00 | 0.00 | 33 | 1005.9 |
| 20260504230503 | 72 | 250 | 1.7 | 6.1 | 0.00 | 0.00 | 0.00 | 33 | 1005.9 |
| 20260504225741 | 72 | 297 | 2.6 | 6.1 | 0.00 | 0.00 | 0.00 | 32 | 1005.9 |
| 20260504225241 | 72 | 331 | 1.7 | 6.1 | 0.00 | 0.00 | 0.00 | 32 | 1005.9 |
| 20260504224741 | 73 | 323 | 1.7 | 6.1 | 0.00 | 0.00 | 0.00 | 31 | 1005.7 |
| 20260504224243 | 73 | 306 | 1.7 | 6.1 | 0.00 | 0.00 | 0.00 | 32 | 1005.7 |
| 20260504223741 | 73 | 266 | 0.9 | 7.8 | 0.00 | 0.00 | 0.00 | 32 | 1005.5 |
| 20260504223240 | 73 | 283 | 1.7 | 7.8 | 0.00 | 0.00 | 0.00 | 31 | 1005.5 |
| 20260504222740 | 73 | 297 | 1.7 | 7.8 | 0.00 | 0.00 | 0.00 | 31 | 1005.5 |
| 20260504222253 | 72 | 288 | 2.6 | 7.8 | 0.00 | 0.00 | 0.00 | 32 | 1005.5 |
| 20260504221741 | 72 | 254 | 2.6 | 7.8 | 0.00 | 0.00 | 0.00 | 31 | 1005.7 |
| 20260504221510 | 73 | 279 | 2.6 | 10.4 | 0.00 | 0.00 | 0.00 | 32 | 1005.7 |
| 20260504220742 | 73 | 199 | 2.6 | 10.4 | 0.00 | 0.00 | 0.00 | 31 | 1005.6 |
| 20260504220241 | 73 | 237 | 2.6 | 7.0 | 0.00 | 0.00 | 0.00 | 31 | 1005.7 |
| 20260504215741 | 73 | 283 | 3.5 | 8.7 | 0.00 | 0.00 | 0.00 | 30 | 1005.7 |
| 20260504215241 | 73 | 276 | 2.6 | 8.7 | 0.00 | 0.00 | 0.00 | 30 | 1005.6 |
| 20260504214741 | 73 | 264 | 2.6 | 8.7 | 0.00 | 0.00 | 0.00 | 30 | 1005.5 |
| 20260504214518 | 74 | 37 | 2.6 | 8.7 | 0.00 | 0.00 | 0.00 | 30 | 1005.4 |
| 20260504213741 | 74 | 70 | 2.6 | 8.7 | 0.00 | 0.00 | 0.00 | 31 | 1005.5 |
| 20260504213239 | 73 | 289 | 2.6 | 8.7 | 0.00 | 0.00 | 0.00 | 30 | 1005.5 |
| 20260504212739 | 74 | 256 | 2.6 | 8.7 | 0.00 | 0.00 | 0.00 | 31 | 1005.6 |
| 20260504212237 | 73 | 317 | 2.6 | 6.1 | 0.00 | 0.00 | 0.00 | 31 | 1005.7 |
| 20260504211737 | 74 | 255 | 2.6 | 9.6 | 0.00 | 0.00 | 0.00 | 30 | 1005.7 |
| 20260504211250 | 74 | 326 | 2.6 | 12.2 | 0.00 | 0.00 | 0.00 | 29 | 1005.7 |
| 20260504210737 | 74 | 262 | 2.6 | 12.2 | 0.00 | 0.00 | 0.00 | 29 | 1005.5 |
| 20260504210238 | 74 | 324 | 3.5 | 12.2 | 0.00 | 0.00 | 0.00 | 30 | 1005.5 |
| 20260504205736 | 74 | 311 | 4.3 | 12.2 | 0.00 | 0.00 | 0.00 | 29 | 1005.4 |
| 20260504205236 | 74 | 323 | 3.5 | 9.6 | 0.00 | 0.00 | 0.00 | 29 | 1005.5 |
| 20260504204737 | 74 | 349 | 3.5 | 9.6 | 0.00 | 0.00 | 0.00 | 30 | 1005.6 |
| 20260504204453 | 74 | 229 | 3.5 | 9.6 | 0.00 | 0.00 | 0.00 | 29 | 1005.4 |
| 20260504204002 | 74 | 240 | 3.5 | 9.6 | 0.00 | 0.00 | 0.00 | 29 | 1005.5 |
| 20260504203456 | 75 | 300 | 2.6 | 11.3 | 0.00 | 0.00 | 0.00 | 28 | 1005.5 |
| 20260504202735 | 76 | 271 | 2.6 | 11.3 | 0.00 | 0.00 | 0.00 | 29 | 1005.5 |
| 20260504202235 | 75 | 295 | 2.6 | 11.3 | 0.00 | 0.00 | 0.00 | 28 | 1005.6 |
| 20260504201735 | 75 | 245 | 3.5 | 11.3 | 0.00 | 0.00 | 0.00 | 29 | 1005.6 |
| 20260504201235 | 75 | 251 | 2.6 | 7.8 | 0.00 | 0.00 | 0.00 | 28 | 1005.6 |
| 20260504200735 | 74 | 158 | 3.5 | 12.2 | 0.00 | 0.00 | 0.00 | 29 | 1005.5 |
| 20260504200235 | 75 | 288 | 3.5 | 12.2 | 0.00 | 0.00 | 0.00 | 28 | 1005.7 |
| 20260504195734 | 74 | 270 | 3.5 | 12.2 | 0.00 | 0.00 | 0.00 | 28 | 1005.5 |
| 20260504195504 | 75 | 98 | 4.3 | 12.2 | 0.00 | 0.00 | 0.00 | 28 | 1005.7 |
| 20260504194734 | 75 | 297 | 4.3 | 11.3 | 0.00 | 0.00 | 0.00 | 28 | 1005.6 |
| 20260504194233 | 74 | 255 | 4.3 | 11.3 | 0.00 | 0.00 | 0.00 | 28 | 1005.7 |
| 20260504193733 | 74 | 311 | 3.5 | 11.3 | 0.00 | 0.00 | 0.00 | 29 | 1005.7 |
| 20260504193233 | 74 | 207 | 3.5 | 11.3 | 0.00 | 0.00 | 0.00 | 28 | 1005.7 |
| 20260504193002 | 74 | 293 | 4.3 | 11.3 | 0.00 | 0.00 | 0.00 | 27 | 1005.8 |
| 20260504192232 | 74 | 266 | 4.3 | 12.2 | 0.00 | 0.00 | 0.00 | 28 | 1005.7 |
| 20260504191733 | 74 | 241 | 4.3 | 12.2 | 0.00 | 0.00 | 0.00 | 28 | 1005.7 |
| 20260504191232 | 74 | 310 | 3.5 | 12.2 | 0.00 | 0.00 | 0.00 | 28 | 1005.8 |
| 20260504190732 | 74 | 301 | 3.5 | 11.3 | 0.00 | 0.00 | 0.00 | 27 | 1005.9 |
| 20260504190232 | 74 | 83 | 4.3 | 11.3 | 0.00 | 0.00 | 0.00 | 29 | 1005.9 |
| 20260504190222 | 74 | 279 | 3.5 | 11.3 | 0.00 | 0.00 | 0.00 | 29 | 1005.9 |
| 20260504185233 | 74 | 286 | 4.3 | 11.3 | 0.00 | 0.00 | 0.00 | 29 | 1005.9 |
| 20260504184732 | 74 | 255 | 4.3 | 12.2 | 0.00 | 0.00 | 0.00 | 29 | 1006.0 |
| 20260504184231 | 73 | 276 | 4.3 | 12.2 | 0.00 | 0.00 | 0.00 | 28 | 1006.0 |
| 20260504183732 | 73 | 240 | 4.3 | 10.4 | 0.00 | 0.00 | 0.00 | 30 | 1005.9 |
| 20260504183450 | 73 | 249 | 4.3 | 17.4 | 0.00 | 0.00 | 0.00 | 30 | 1006.0 |
| 20260504182952 | 73 | 291 | 4.3 | 17.4 | 0.00 | 0.00 | 0.00 | 30 | 1006.0 |
| 20260504182449 | 73 | 271 | 5.2 | 17.4 | 0.00 | 0.00 | 0.00 | 29 | 1006.1 |
| 20260504181730 | 72 | 254 | 6.1 | 17.4 | 0.00 | 0.00 | 0.00 | 29 | 1006.1 |
| 20260504181230 | 72 | 304 | 4.3 | 13.0 | 0.00 | 0.00 | 0.00 | 30 | 1006.1 |
| 20260504180730 | 72 | 200 | 2.6 | 10.4 | 0.00 | 0.00 | 0.00 | 30 | 1006.2 |
| 20260504180230 | 72 | 254 | 4.3 | 10.4 | 0.00 | 0.00 | 0.00 | 31 | 1006.2 |
| 20260504175743 | 71 | 75 | 4.3 | 10.4 | 0.00 | 0.00 | 0.00 | 30 | 1006.3 |
| 20260504175229 | 72 | 274 | 4.3 | 16.5 | 0.00 | 0.00 | 0.00 | 31 | 1006.2 |
| 20260504174948 | 71 | 273 | 4.3 | 16.5 | 0.00 | 0.00 | 0.00 | 31 | 1006.3 |
| 20260504174229 | 71 | 257 | 4.3 | 16.5 | 0.00 | 0.00 | 0.00 | 31 | 1006.3 |
| 20260504173729 | 71 | 293 | 5.2 | 16.5 | 0.00 | 0.00 | 0.00 | 31 | 1006.5 |
| 20260504173451 | 71 | 274 | 4.3 | 13.9 | 0.00 | 0.00 | 0.00 | 30 | 1006.4 |
| 20260504172729 | 71 | 256 | 4.3 | 12.2 | 0.00 | 0.00 | 0.00 | 30 | 1006.5 |
| 20260504172459 | 71 | 289 | 4.3 | 12.2 | 0.00 | 0.00 | 0.00 | 31 | 1006.6 |
| 20260504171730 | 71 | 180 | 4.3 | 12.2 | 0.00 | 0.00 | 0.00 | 32 | 1006.5 |
| 20260504171230 | 71 | 210 | 5.2 | 16.5 | 0.00 | 0.00 | 0.00 | 31 | 1006.6 |
| 20260504170949 | 71 | 287 | 4.3 | 16.5 | 0.00 | 0.00 | 0.00 | 31 | 1006.6 |
| 20260504170230 | 71 | 237 | 5.2 | 16.5 | 0.00 | 0.00 | 0.00 | 33 | 1006.5 |
| 20260504160225 | 69 | 279 | 4.3 | 13.9 | 0.00 | 0.00 | 0.00 | 34 | 1006.9 |
| 20260504150724 | 66 | 278 | 3.5 | 12.2 | 0.00 | 0.00 | 0.00 | 38 | 1007.8 |
| 20260504150223 | 66 | 273 | 3.5 | 12.2 | 0.00 | 0.00 | 0.00 | 38 | 1007.8 |
| 20260504150204 | 66 | 337 | 2.6 | 10.4 | 0.00 | 0.00 | 0.00 | 37 | 1007.9 |
| 20260504141222 | 63 | 313 | 2.6 | 7.0 | 0.00 | 0.00 | 0.00 | 43 | 1008.6 |
| 20260504140722 | 63 | 272 | 2.6 | 7.0 | 0.00 | 0.00 | 0.00 | 42 | 1008.6 |
| 20260504140235 | 63 | 140 | 1.7 | 12.2 | 0.00 | 0.00 | 0.00 | 43 | 1008.7 |
| 20260504130720 | 59 | 359 | 1.7 | 8.7 | 0.00 | 0.00 | 0.00 | 47 | 1009.5 |
| 20260504130220 | 58 | 270 | 2.6 | 8.7 | 0.00 | 0.00 | 0.00 | 48 | 1009.5 |
| 20260504120214 | 52 | 262 | 1.7 | 5.2 | 0.00 | 0.00 | 0.00 | 57 | 1010.2 |
| 20260504110710 | 49 | 315 | 0.9 | 6.1 | 0.00 | 0.00 | 0.00 | 58 | 1010.6 |
| 20260504110210 | 49 | 268 | 0.9 | 6.1 | 0.00 | 0.00 | 0.00 | 58 | 1010.7 |
| 20260504100208 | 46 | 255 | 0.0 | 4.3 | 0.00 | 0.00 | 0.00 | 60 | 1010.4 |
| 20260504081706 | 46 | 304 | 0.0 | 5.2 | 0.00 | 0.00 | 0.00 | 60 | 1010.2 |
| 20260504081205 | 46 | 290 | 0.9 | 5.2 | 0.00 | 0.00 | 0.00 | 60 | 1010.1 |
| 20260504080704 | 46 | 252 | 0.9 | 5.2 | 0.00 | 0.00 | 0.00 | 60 | 1010.2 |
| 20260504080203 | 46 | 262 | 0.9 | 5.2 | 0.00 | 0.00 | 0.00 | 60 | 1010.1 |
| 20260504070205 | 43 | 301 | 0.0 | 0.9 | 0.00 | 0.00 | 0.00 | 63 | 1009.9 |
| 20260504060201 | 40 | 255 | 0.0 | 0.0 | 0.00 | 0.00 | 0.00 | 66 | 1009.9 |
| 20260504050656 | 40 | 255 | 0.0 | 0.0 | 0.00 | 0.00 | 0.00 | 65 | 1009.7 |
| 20260504050154 | 40 | 255 | 0.0 | 0.0 | 0.00 | 0.00 | 0.00 | 65 | 1009.8 |
| 20260504045656 | 40 | 255 | 0.0 | 0.0 | 0.00 | 0.00 | 0.00 | 65 | 1009.8 |
| 20260504045421 | 41 | 255 | 0.0 | 0.0 | 0.00 | 0.00 | 0.00 | 64 | 1009.8 |
| 20260504044655 | 41 | 255 | 0.0 | 0.0 | 0.00 | 0.00 | 0.00 | 64 | 1009.8 |
| 20260504044154 | 42 | 255 | 0.0 | 0.0 | 0.00 | 0.00 | 0.00 | 63 | 1009.7 |
| 20260504043654 | 42 | 255 | 0.0 | 0.0 | 0.00 | 0.00 | 0.00 | 62 | 1009.8 |
| 20260504043154 | 42 | 255 | 0.0 | 0.0 | 0.00 | 0.00 | 0.00 | 62 | 1009.7 |
| 20260504042655 | 42 | 255 | 0.0 | 0.0 | 0.00 | 0.00 | 0.00 | 62 | 1009.7 |
| 20260504042154 | 43 | 255 | 0.0 | 0.9 | 0.00 | 0.00 | 0.00 | 62 | 1009.6 |
| 20260504041654 | 43 | 255 | 0.0 | 1.7 | 0.00 | 0.00 | 0.00 | 61 | 1009.7 |
| 20260504041155 | 43 | 274 | 0.0 | 1.7 | 0.00 | 0.00 | 0.00 | 61 | 1009.6 |
| 20260504040653 | 43 | 262 | 0.0 | 1.7 | 0.00 | 0.00 | 0.00 | 62 | 1009.6 |
| 20260504040155 | 43 | 262 | 0.0 | 1.7 | 0.00 | 0.00 | 0.00 | 62 | 1009.5 |